Погода в Садгороде

Россия / Самарская область     53°23′07″N   51°10′24″E
темп.,
°C
ветер,
м/с
пор.,
м/с
влажн.,
%
обл.,
%
осадки,
мм/ч
давл.,
гПа
погр.,
м
9 марта, вт
вт901:00−5зюз6138998 1.0 1003430
04:00−10зюз5128949 1.0 1006240
07:00−13зсз33959 0.0 100830
10:00−10зюз119340 0.0 101062
13:00−7ссз0087100 0.0 1010235
16:00−7св1187100 0.0 1009255
19:00−9с2391100 0.0 100824
22:00−12ссз4592100 0.0 100888
10 марта, ср
ср1001:00−14сз4894100 0.0 1007154
04:00−17сз479699 0.0 1008132
07:00−16сз4109655 0.0 1009238
10:00−14сз6119175 0.1 1011452
13:00−14сз71090100 0.1 1012542
16:00−14сз71090100 0.2 1014631
19:00−17сз51194100 0.2 1016486
22:00−20ссз51192100 0.3 1018345
11 марта, чт
чт1101:00−24ссз499448 0.0 1020164
04:00−25сз499524 0.0 1022164
07:00−27сз47960 0.0 1023122
10:00−23сз49941 0.0 1025266
13:00−19сз479267 0.0 1026350
16:00−17зсз479172 0.0 1026404
19:00−21зсз459731 0.0 102788
22:00−21зсз239955 0.0 102825
12 марта, пт
пт1201:00−21з229973 0.0 102920
04:00−20зсз2310083 0.0 103022
07:00−21зсз2310096 0.0 103220
10:00−16зсз239360 0.0 1033137
13:00−12зсз34905 0.0 1034265
16:00−10зсз36907 0.0 1033275
19:00−15зсз34880 0.0 103436
22:00−16зсз23840 0.0 103622
13 марта, сб
сб1301:00−17з22890 0.0 103620
04:00−18з12880 0.0 103720
07:00−19юз12930 0.0 103720
10:00−14юз11880 0.0 103876
13:00−10ююз23870 0.0 1038242
16:00−9ююз23900 0.0 1036183
19:00−14юз33930 0.0 103520
22:00−17юз23880 0.0 103520